2024/01/27 00:00:00,21.5,-0.9
2024/01/27 00:10:00,21.5,-1.4
2024/01/27 00:20:00,21.4,-1.6
2024/01/27 00:30:00,21.4,-1.6
2024/01/27 00:40:00,21.3,-1.4
2024/01/27 00:50:00,21.2,-1.3
2024/01/27 01:00:00,21.2,-1.5
2024/01/27 01:10:00,21.2,-1.4
2024/01/27 01:20:00,21.1,-1.1
2024/01/27 01:30:00,21.1,-1.3
2024/01/27 01:40:00,21.0,-1.1
2024/01/27 01:50:00,21.0,-0.9
2024/01/27 02:00:00,20.9,-1.0
2024/01/27 02:10:00,20.8,-1.0
2024/01/27 02:20:00,20.8,-1.1
2024/01/27 02:30:00,20.8,-0.9
2024/01/27 02:40:00,20.8,-1.1
2024/01/27 02:50:00,20.8,-1.0
2024/01/27 03:00:00,20.7,-1.4
2024/01/27 03:10:00,20.8,-1.2
2024/01/27 03:20:00,20.7,-1.6
2024/01/27 03:30:00,20.7,-1.9
2024/01/27 03:40:00,20.6,-1.9
2024/01/27 03:50:00,20.7,-1.9
2024/01/27 04:00:00,20.6,-1.5
2024/01/27 04:10:00,20.6,-1.7
2024/01/27 04:20:00,20.5,-1.1
2024/01/27 04:30:00,20.5,-0.8
2024/01/27 04:40:00,20.4,-1.5
2024/01/27 04:50:00,20.4,-1.5
2024/01/27 05:00:00,20.4,-1.5
2024/01/27 05:10:00,20.4,-1.2
2024/01/27 05:20:00,20.4,-1.2
2024/01/27 05:30:00,20.4,-1.0
2024/01/27 05:40:00,20.3,-1.1
2024/01/27 05:50:00,20.3,-0.6
2024/01/27 06:00:00,20.3,-1.2
2024/01/27 06:10:00,20.2,-1.2
2024/01/27 06:20:00,20.2,-1.1
2024/01/27 06:30:00,20.2,-1.1
2024/01/27 06:40:00,20.1,-1.1
2024/01/27 06:50:00,20.1,-1.0
2024/01/27 07:00:00,20.0,-1.2
2024/01/27 07:10:00,20.0,-0.5
2024/01/27 07:20:00,20.0,-0.9
2024/01/27 07:30:00,20.0,-1.4
2024/01/27 07:40:00,19.9,-1.8
2024/01/27 07:50:00,20.0,-1.9
2024/01/27 08:00:00,20.0,-1.4
2024/01/27 08:10:00,19.9,-0.4
2024/01/27 08:20:00,19.8,-0.3
2024/01/27 08:30:00,19.8,-0.2
2024/01/27 08:40:00,19.8, 0.0
2024/01/27 08:50:00,19.8, 0.6
2024/01/27 09:00:00,19.8, 1.5
2024/01/27 09:10:00,19.8, 1.8
2024/01/27 09:20:00,19.9, 2.4
2024/01/27 09:30:00,19.8, 2.7
2024/01/27 09:40:00,19.9, 2.9
2024/01/27 09:50:00,19.9, 2.9
2024/01/27 10:00:00,19.9, 3.3
2024/01/27 10:10:00,19.9, 3.0
2024/01/27 10:20:00,19.9, 3.6
2024/01/27 10:30:00,19.8, 3.7
2024/01/27 10:40:00,19.8, 3.8
2024/01/27 10:50:00,19.7, 3.4
2024/01/27 11:00:00,19.7, 2.7
2024/01/27 11:10:00,19.6, 2.1
2024/01/27 11:20:00,19.6, 1.3
2024/01/27 11:30:00,19.5, 1.7
2024/01/27 11:40:00,19.6, 1.7
2024/01/27 11:50:00,19.6, 3.2
2024/01/27 12:00:00,19.4, 2.8
2024/01/27 12:10:00,19.3, 3.1
2024/01/27 12:20:00,19.2, 2.9
2024/01/27 12:30:00,19.3, 4.1
2024/01/27 12:40:00,19.3, 4.2
2024/01/27 12:50:00,19.1, 3.4
2024/01/27 13:00:00,19.0, 3.4
2024/01/27 13:10:00,19.0, 3.8
2024/01/27 13:20:00,18.9, 3.4
2024/01/27 13:30:00,18.8, 2.8
2024/01/27 13:40:00,18.7, 3.1
2024/01/27 13:50:00,18.7, 3.4
2024/01/27 14:00:00,18.5, 4.2
2024/01/27 14:10:00,18.3, 3.8
2024/01/27 14:20:00,18.2, 4.0
2024/01/27 14:30:00,17.9, 3.6
2024/01/27 14:40:00,17.9, 3.4
2024/01/27 14:50:00,17.9, 3.7
2024/01/27 15:00:00,17.8, 3.7
2024/01/27 15:10:00,17.5, 3.4
2024/01/27 15:20:00,17.3, 3.3
2024/01/27 15:30:00,17.3, 3.4
2024/01/27 15:40:00,17.2, 3.1
2024/01/27 15:50:00,17.1, 3.1
2024/01/27 16:00:00,16.9, 2.7
2024/01/27 16:10:00,16.8, 2.3
2024/01/27 16:20:00,16.7, 2.3
2024/01/27 16:30:00,16.6, 2.3
2024/01/27 16:40:00,16.4, 2.1
2024/01/27 16:50:00,16.4, 1.5
2024/01/27 17:00:00,16.3, 1.0
2024/01/27 17:10:00,16.3, 0.7
2024/01/27 17:20:00,16.2, 0.7
2024/01/27 17:30:00,16.1, 0.1
2024/01/27 17:40:00,16.0, 0.2
2024/01/27 17:50:00,16.0,-0.3
2024/01/27 18:00:00,16.0,-0.7
2024/01/27 18:10:00,16.0,-1.0
2024/01/27 18:20:00,16.0,-0.9
2024/01/27 18:30:00,15.9,-1.1
2024/01/27 18:40:00,15.8,-1.1
2024/01/27 18:50:00,15.8,-1.2
2024/01/27 19:00:00,15.8,-1.3
2024/01/27 19:10:00,15.9,-1.4
2024/01/27 19:20:00,15.9,-1.0
2024/01/27 19:30:00,15.8,-1.6
2024/01/27 19:40:00,15.8,-1.8
2024/01/27 19:50:00,15.8,-1.6
2024/01/27 20:00:00,15.7,-1.7
2024/01/27 20:10:00,15.7,-1.9
2024/01/27 20:20:00,15.6,-1.9
2024/01/27 20:30:00,15.6,-1.5
2024/01/27 20:40:00,15.5,-1.6
2024/01/27 20:50:00,15.6,-0.8
2024/01/27 21:00:00,15.5,-0.9
2024/01/27 21:10:00,15.6,-0.9
2024/01/27 21:20:00,15.6,-0.7
2024/01/27 21:30:00,15.6,-0.5
2024/01/27 21:40:00,15.5,-0.5
2024/01/27 21:50:00,15.5,-0.4
2024/01/27 22:00:00,15.4,-0.5
2024/01/27 22:10:00,15.4, 0.1
2024/01/27 22:20:00,15.3,-0.3
2024/01/27 22:30:00,15.3,-0.4
2024/01/27 22:40:00,15.3,-0.5
2024/01/27 22:50:00,15.3,-0.6
2024/01/27 23:00:00,15.4,-0.8
2024/01/27 23:10:00,15.3,-0.9
2024/01/27 23:20:00,15.3,-1.2
2024/01/27 23:30:00,15.2,-1.0
2024/01/27 23:40:00,15.2,-0.9
2024/01/27 23:50:00,15.1,-0.8
